Location: Stockholm
(59.3330°N, 18.0500°E)
Time: 23:30:38
(UTC+02:00)

NOAA 18 - Pass Details

Date: 05 April 2023
Orbit: 838 x 860 km, 98.9° (Epoch: 02 June)

Event Time Altitude Azimuth Distance (km) Brightness Sun altitude
Exits shadow 00:11:44 13° 243° (WSW) 2,286 7.3 -24.3°
Maximum altitude 00:14:27 18° 276° (W) 2,004 7.3 -24.4°
Drops below altitude 10° 00:18:09 10° 318° (NW) 2,511 8.4 -24.5°
Sets 00:21:23 0° 338° (NNW) 3,451 9.6 -24.5°
